Location: Prague
(50.0830°N, 14.4670°E)
Time: 16:18:32
(UTC+02:00)

DOVE 4 - Pass Details

Date: 04 April 2023
Orbit: 584 x 791 km, 97.8° (Epoch: 03 June)

Event Time Altitude Azimuth Distance (km) Brightness Sun altitude
Rises 23:21:48 0° 19° (NNE) 3,112 ? -29.8°
Reaches altitude 10° 23:24:17 10° 27° (NNE) 2,152 ? -30.0°
Enters shadow 23:26:00 20° 39° (NE) 1,542 ? -30.1°
